TimeEDT,TemperatureF,Dew PointF,Humidity,Sea Level PressureIn,VisibilityMPH,Wind Direction,Wind SpeedMPH,Gust SpeedMPH,PrecipitationIn,Events,Conditions,WindDirDegrees,DateUTC
12:15 AM,46.4,44.6,93,30.20,10.0,Calm,Calm,-,N/A,,Clear,0,2014-03-09 05:15:00
12:35 AM,46.4,44.6,93,30.19,10.0,Calm,Calm,-,N/A,,Clear,0,2014-03-09 05:35:00
12:55 AM,44.6,44.6,100,30.20,10.0,Calm,Calm,-,N/A,,Clear,0,2014-03-09 05:55:00
1:15 AM,44.6,44.6,100,30.20,10.0,Calm,Calm,-,N/A,,Clear,0,2014-03-09 06:15:00
1:35 AM,44.6,44.6,100,30.20,10.0,Calm,Calm,-,N/A,,Partly Cloudy,0,2014-03-09 06:35:00
1:55 AM,44.6,42.8,93,30.20,10.0,Calm,Calm,-,N/A,,Mostly Cloudy,0,2014-03-09 06:55:00
3:15 AM,44.6,42.8,93,30.20,10.0,Calm,Calm,-,N/A,,Overcast,0,2014-03-09 07:15:00
3:35 AM,44.6,42.8,93,30.20,10.0,Calm,Calm,-,N/A,,Overcast,0,2014-03-09 07:35:00
3:55 AM,44.6,42.8,93,30.20,10.0,Calm,Calm,-,N/A,,Overcast,0,2014-03-09 07:55:00
4:15 AM,42.8,41.0,93,30.19,10.0,Calm,Calm,-,N/A,,Mostly Cloudy,0,2014-03-09 08:15:00
4:35 AM,42.8,41.0,93,30.18,10.0,Calm,Calm,-,N/A,,Scattered Clouds,0,2014-03-09 08:35:00
4:55 AM,42.8,41.0,93,30.18,10.0,Calm,Calm,-,N/A,,Clear,0,2014-03-09 08:55:00
5:15 AM,42.8,41.0,93,30.18,10.0,Calm,Calm,-,N/A,,Clear,0,2014-03-09 09:15:00
5:35 AM,42.8,41.0,93,30.18,10.0,Calm,Calm,-,N/A,,Clear,0,2014-03-09 09:35:00
5:55 AM,41.0,41.0,100,30.18,10.0,Calm,Calm,-,N/A,,Clear,0,2014-03-09 09:55:00
6:15 AM,41.0,41.0,100,30.19,10.0,Calm,Calm,-,N/A,,Partly Cloudy,0,2014-03-09 10:15:00
6:35 AM,41.0,41.0,100,30.19,10.0,Calm,Calm,-,N/A,,Partly Cloudy,0,2014-03-09 10:35:00
6:55 AM,41.0,41.0,100,30.20,10.0,Calm,Calm,-,N/A,,Clear,0,2014-03-09 10:55:00
7:15 AM,41.0,41.0,100,30.19,10.0,Calm,Calm,-,N/A,,Scattered Clouds,0,2014-03-09 11:15:00
7:35 AM,41.0,41.0,100,30.21,10.0,Calm,Calm,-,N/A,,Scattered Clouds,0,2014-03-09 11:35:00
7:55 AM,41.0,41.0,100,30.22,10.0,Calm,Calm,-,N/A,,Clear,0,2014-03-09 11:55:00
8:15 AM,41.0,41.0,100,30.22,10.0,Calm,Calm,-,N/A,,Clear,0,2014-03-09 12:15:00
8:35 AM,42.8,41.0,93,30.23,10.0,Calm,Calm,-,N/A,,Clear,0,2014-03-09 12:35:00
8:55 AM,46.4,44.6,93,30.24,10.0,Calm,Calm,-,N/A,,Clear,0,2014-03-09 12:55:00
9:15 AM,48.2,46.4,93,30.25,10.0,Calm,Calm,-,N/A,,Clear,0,2014-03-09 13:15:00
9:55 AM,57.2,50.0,77,30.24,10.0,NW,4.6,-,N/A,,Clear,320,2014-03-09 13:55:00
10:15 AM,59.0,50.0,72,30.25,10.0,NW,6.9,-,N/A,,Clear,320,2014-03-09 14:15:00
10:35 AM,62.6,50.0,63,30.25,10.0,North,6.9,-,N/A,,Clear,350,2014-03-09 14:35:00
10:55 AM,62.6,50.0,63,30.24,10.0,NNW,8.1,-,N/A,,Clear,330,2014-03-09 14:55:00
11:15 AM,64.4,50.0,59,30.24,10.0,WNW,4.6,-,N/A,,Clear,300,2014-03-09 15:15:00
11:35 AM,66.2,48.2,52,30.24,10.0,North,5.8,-,N/A,,Clear,350,2014-03-09 15:35:00
11:55 AM,66.2,48.2,52,30.23,10.0,Calm,Calm,-,N/A,,Clear,0,2014-03-09 15:55:00
12:15 PM,68.0,50.0,52,30.23,10.0,NNW,5.8,-,N/A,,Clear,330,2014-03-09 16:15:00
12:35 PM,68.0,50.0,52,30.22,10.0,Calm,Calm,-,N/A,,Clear,0,2014-03-09 16:35:00
12:55 PM,68.0,48.2,49,30.22,10.0,WSW,6.9,-,N/A,,Clear,240,2014-03-09 16:55:00
1:15 PM,68.0,50.0,52,30.21,10.0,Calm,Calm,-,N/A,,Clear,0,2014-03-09 17:15:00
1:35 PM,71.6,48.2,43,30.20,10.0,SW,6.9,-,N/A,,Clear,230,2014-03-09 17:35:00
1:55 PM,71.6,48.2,43,30.19,10.0,NW,3.5,-,N/A,,Clear,310,2014-03-09 17:55:00
2:15 PM,71.6,50.0,46,30.18,10.0,West,5.8,-,N/A,,Clear,280,2014-03-09 18:15:00
2:35 PM,71.6,50.0,46,30.18,10.0,WNW,9.2,-,N/A,,Clear,290,2014-03-09 18:35:00
2:55 PM,71.6,50.0,46,30.16,10.0,Calm,Calm,-,N/A,,Clear,0,2014-03-09 18:55:00
3:15 PM,73.4,48.2,41,30.16,10.0,SSW,6.9,-,N/A,,Clear,200,2014-03-09 19:15:00
3:35 PM,73.4,48.2,41,30.16,10.0,NW,4.6,-,N/A,,Clear,320,2014-03-09 19:35:00
3:55 PM,71.6,48.2,43,30.15,10.0,WSW,3.5,-,N/A,,Clear,240,2014-03-09 19:55:00
4:15 PM,73.4,48.2,41,30.14,10.0,West,4.6,-,N/A,,Clear,280,2014-03-09 20:15:00
4:35 PM,73.4,50.0,44,30.13,10.0,NW,8.1,-,N/A,,Partly Cloudy,320,2014-03-09 20:35:00
4:55 PM,73.4,50.0,44,30.13,10.0,NNW,6.9,-,N/A,,Clear,330,2014-03-09 20:55:00
5:15 PM,73.4,50.0,44,30.13,10.0,North,6.9,-,N/A,,Clear,350,2014-03-09 21:15:00
5:35 PM,71.6,50.0,46,30.13,10.0,NNW,8.1,-,N/A,,Clear,340,2014-03-09 21:35:00
5:55 PM,71.6,50.0,46,30.12,10.0,WNW,4.6,-,N/A,,Clear,300,2014-03-09 21:55:00
6:15 PM,71.6,50.0,46,30.12,10.0,Calm,Calm,-,N/A,,Clear,0,2014-03-09 22:15:00
6:35 PM,69.8,50.0,49,30.12,10.0,NNW,5.8,-,N/A,,Clear,340,2014-03-09 22:35:00
6:55 PM,68.0,50.0,52,30.13,10.0,NW,4.6,-,N/A,,Clear,320,2014-03-09 22:55:00
7:15 PM,68.0,50.0,52,30.12,10.0,Calm,Calm,-,N/A,,Clear,0,2014-03-09 23:15:00
7:35 PM,66.2,50.0,56,30.13,10.0,NW,3.5,-,N/A,,Clear,320,2014-03-09 23:35:00
7:55 PM,64.4,51.8,64,30.13,10.0,Calm,Calm,-,N/A,,Clear,0,2014-03-09 23:55:00
8:15 PM,62.6,51.8,68,30.13,10.0,Calm,Calm,-,N/A,,Partly Cloudy,0,2014-03-10 00:15:00
8:35 PM,60.8,51.8,72,30.14,10.0,Calm,Calm,-,N/A,,Partly Cloudy,0,2014-03-10 00:35:00
8:55 PM,59.0,51.8,77,30.14,10.0,Calm,Calm,-,N/A,,Partly Cloudy,0,2014-03-10 00:55:00
9:15 PM,57.2,51.8,82,30.14,10.0,Calm,Calm,-,N/A,,Clear,0,2014-03-10 01:15:00
9:35 PM,57.2,51.8,82,30.16,10.0,Calm,Calm,-,N/A,,Clear,0,2014-03-10 01:35:00
9:55 PM,57.2,50.0,77,30.16,10.0,Calm,Calm,-,N/A,,Partly Cloudy,0,2014-03-10 01:55:00
10:15 PM,57.2,50.0,77,30.17,10.0,Calm,Calm,-,N/A,,Mostly Cloudy,0,2014-03-10 02:15:00
10:35 PM,59.0,50.0,72,30.17,10.0,WSW,4.6,-,N/A,,Overcast,240,2014-03-10 02:35:00
10:55 PM,59.0,48.2,67,30.17,10.0,Calm,Calm,-,N/A,,Overcast,0,2014-03-10 02:55:00
11:15 PM,57.2,48.2,72,30.17,10.0,WSW,5.8,-,N/A,,Overcast,250,2014-03-10 03:15:00
11:35 PM,57.2,48.2,72,30.18,10.0,Calm,Calm,-,N/A,,Overcast,0,2014-03-10 03:35:00
11:55 PM,57.2,48.2,72,30.18,10.0,WSW,5.8,-,N/A,,Overcast,250,2014-03-10 03:55:00
12:15 AM,57.2,48.2,72,30.18,10.0,WSW,6.9,-,N/A,,Overcast,250,2014-03-10 04:15:00
12:35 AM,57.2,48.2,72,30.18,10.0,WSW,6.9,-,N/A,,Overcast,250,2014-03-10 04:35:00
12:55 AM,55.4,48.2,77,30.18,10.0,West,6.9,-,N/A,,Overcast,270,2014-03-10 04:55:00